This is the latest recevied weather packets stored in our database for station/object N1HQ. If no packets are shown the sender has not sent any weather packets the latest 10 day(s).
| Time | Temp. | Humidity | Pressure | Rain* | Wind** | Luminosity | Snow |
|---|---|---|---|---|---|---|---|
| 1778002228 | 26.67° C | 66% | 1014 hPa | 0 mm | - | - | - |
| 1778001983 | 26.11° C | 66% | 1014 hPa | 0 mm | - | - | - |
| 1778001738 | 26.11° C | 65% | 1014 hPa | 0 mm | - | - | - |
| 1778001438 | 26.67° C | 65% | 1014 hPa | 0 mm | - | - | - |
| 1778001193 | 26.67° C | 65% | 1014 hPa | 0 mm | - | - | - |
| 1778000943 | 26.67° C | 64% | 1014.1 hPa | 0 mm | - | - | - |
| 1778000695 | 26.67° C | 64% | 1014.1 hPa | 0 mm | - | - | - |
| 1778000435 | 26.67° C | 64% | 1014.2 hPa | 0 mm | - | - | - |
| 1778000188 | 26.67° C | 63% | 1014.2 hPa | 0 mm | - | - | - |
| 1777999888 | 26.67° C | 65% | 1014.1 hPa | 0 mm | - | - | - |
| 1777999628 | 26.67° C | 64% | 1014.1 hPa | 0 mm | - | - | - |
| 1777999375 | 26.67° C | 65% | 1014.1 hPa | 0 mm | - | - | - |
| 1777999095 | 26.67° C | 66% | 1014.1 hPa | 0 mm | - | - | - |
| 1777998815 | 26.67° C | 64% | 1013.9 hPa | 0 mm | - | - | - |
| 1777998528 | 26.67° C | 65% | 1014 hPa | 0 mm | - | - | - |
| 1777998228 | 26.11° C | 65% | 1013.9 hPa | 0 mm | - | - | - |
| 1777997968 | 26.11° C | 66% | 1013.9 hPa | 0 mm | - | - | - |
| 1777997670 | 26.11° C | 65% | 1013.8 hPa | 0 mm | - | - | - |
| 1777997423 | 25.56° C | 66% | 1013.9 hPa | 0 mm | - | - | - |
| 1777997172 | 25.56° C | 65% | 1014.1 hPa | 0 mm | - | - | - |
| 1777996893 | 25.56° C | 66% | 1014.1 hPa | 0 mm | - | - | - |
| 1777996653 | 25° C | 67% | 1014.2 hPa | 0 mm | - | - | - |
| 1777996365 | 25.56° C | 66% | 1014.3 hPa | 0 mm | - | - | - |
| 1777995813 | 25.56° C | 64% | 1014.2 hPa | 0 mm | - | - | - |
| 1777995528 | 25.56° C | 64% | 1014.1 hPa | 0 mm | - | - | - |
* Rain latest hour (hover to see other rain measurements)
** Current wind speed in m/s (hover to see current wind gust speed)